STARLINK-31452 (59527 NORAD) Tracking and Keplerian Element Data

This shows tracking and keplerian element data for the satellite.

Feedback or suggestion? Click here.




ElementValue
Catalog59527
NameSTARLINK-31452
Epoch Orbit909
Epoch Day160.00024922
Epoch Year2024
RAAN2.6456
Inclination43.001
Eccentricity0.0002122
Argument of Perigee265.7101
Mean Anonmoly94.3513
Mean Motion15.40775616
Decay Rate0.0005463
L11 59527U 24073S 24160.00024922 .00054630 00000+0 13024-2 0 9995
L22 59527 43.0010 2.6456 0002122 265.7101 94.3513 15.40775616 9095



Live tracking and technical data element details for STARLINK-31452 (NORAD 59527). STARLINK-31452 can be tracked NOW for your location showing map with azimuth and elevation plus other details from your city location.







IsCatalogInMostPopularTable: catalog: 59527, numindb: 8
Update: records affected: 1



GetName: 59527 STARLINK-31452

Hit Count: updated at: Fri, 14 Jun 2024 19:05:07 GMT